Regional Weather Roundup
Issued by NWS

Home | Current Version | Previous Version | Graphics & Text | Print | Product List | Glossary Off
Versions: 1 2 3 4 5 6 7 8 9 10 11 12 13 14 15 16 17 18 19 20 21 22 23 24 25 26 27 28 29 30 31 32 33 34 35 36 37 38 39 40 41 42 43 44 45 46 47 48 49 50

000
ASUS43 KMKX 270411
RWRWI

WISCONSIN REGIONAL WEATHER ROUNDUP
NATIONAL WEATHER SERVICE MILWAUKEE/SULLIVAN WI
1100 PM CDT SUN APR 26 2015

NOTE: "FAIR" INDICATES FEW OR NO CLOUDS BELOW 12,000 FEET WITH NO
SIGNIFICANT WEATHER AND/OR OBSTRUCTIONS TO VISIBILITY.

WIZ001-002-006>008-014>016-023>028-270500-
NORTHWEST WISCONSIN

CITY           SKY/WX    TMP DP  RH WIND       PRES   REMARKS
SUPERIOR ARPT  CLEAR     31  29  90 CALM      30.19S
ASHLAND        CLEAR     34  31  88 N3        30.19R
HAYWARD        CLEAR     34  26  72 CALM      30.16R
SIREN          CLEAR     40  26  59 CALM      30.16R
CUMBERLAND     CLEAR     43  21  42 CALM      30.14S
RICE LAKE      CLEAR     39  31  72 CALM      30.16S
CHETEK         CLEAR     44  26  49 N5        30.14S
LADYSMITH      CLEAR     41  25  53 N6        30.15S
EAU CLAIRE     CLEAR     46  25  43 NE5       30.13R
MENOMONIE      CLEAR     49  24  37 N6        30.13S
NEW RICHMOND   CLEAR     44  26  48 NE5       30.15S
OSCEOLA        CLEAR     46  25  44 CALM      30.18R
$$

WIZ003>005-009-010-017-018-270500-
NORTH CENTRAL WISCONSIN

CITY           SKY/WX    TMP DP  RH WIND       PRES   REMARKS
MANITOWISH WTR CLEAR     34  26  72 CALM      30.13S
ARBOR VITAE    CLEAR     42  28  59 N3        30.13S
WOODRUFF       CLEAR     42  28  59 N3        30.13S
RHINELANDER    CLEAR     40  29  64 N3        30.13R
EAGLE RIVER    CLEAR     38  26  64 N3        30.13R
LAND O LAKES   CLEAR     34  28  77 CALM      30.13S
PHILLIPS       CLEAR     37  25  63 NE5       30.13R WCI  33
TOMAHAWK       CLEAR     40  29  64 CALM      30.13S
MEDFORD        CLEAR     40  28  61 N7        30.12R
MERRILL        CLEAR     43  30  60 NE6       30.11S
$$

WIZ029-030-035-036-043>047-270500-
CENTRAL WISCONSIN

CITY           SKY/WX    TMP DP  RH WIND       PRES   REMARKS
WAUSAU         CLEAR     47  29  49 N9        30.09R
MOSINEE        CLEAR     46  30  53 N12       30.11R
MARSHFIELD     CLEAR     48  27  44 NE9       30.10R
STEVENS POINT  CLEAR     44  26  50 CALM      30.11R
WAUPACA        CLEAR     47  31  54 NE5       30.10R
WAUTOMA        CLEAR     46  29  52 E6        30.10R
WISC RAPIDS    CLEAR     46  24  42 NE8       30.10R
CAMP DOUGLAS   CLEAR     49  26  41 N5        30.07R
$$

WIZ011>013-019>022-031-037>040-048>050-270500-
NORTHEAST WISCONSIN

CITY           SKY/WX    TMP DP  RH WIND       PRES   REMARKS
ANTIGO         CLEAR     42  29  60 N8        30.10S
SHAWANO        CLEAR     41  33  73 CALM      30.10S
OCONTO         CLEAR     42  30  63 N3        30.09S
STURGEON BAY   MOCLDY    45  28  53 N12G18    30.09S
GREEN BAY      CLEAR     46  33  60 NE10      30.08S
MANITOWOC      CLEAR     41  33  73 N6        30.08S
APPLETON       CLEAR     45  28  53 CALM      30.09R
CLINTONVILLE   CLEAR     43  32  65 CALM      30.10R
OSHKOSH        CLEAR     44  32  62 E3        30.09R
$$

WIZ032>034-041-042-053>061-270500-
SOUTHWEST WISCONSIN

CITY           SKY/WX    TMP DP  RH WIND       PRES   REMARKS
LA CROSSE      CLEAR     54  25  32 NE10      30.09R
SPARTA         CLEAR     49  25  38 N5        30.10R
VIROQUA        CLEAR     47  28  46 N10       30.07R
BOSCOBEL       CLEAR     41  31  67 CALM      30.06S
PRAIRIE DU CHI CLEAR     43  32  66 CALM      30.06S
PLATTEVILLE    CLEAR     47  30  52 NW5       30.04F
$$

WIZ056-057-062-063-064-067-068-270500-
SOUTH CENTRAL WISCONSIN

CITY           SKY/WX    TMP DP  RH WIND       PRES   REMARKS
REEDSBURG      CLEAR     49  27  41 NE3       30.06R
BARABOO/DELLS  CLEAR     46  28  48 E7        30.07R
LONE ROCK      CLEAR     42  32  67 W3        30.04S
MINERAL POINT  CLEAR     46  25  42 NW5       30.04S
MADISON        CLEAR     45  28  51 E9        30.07R
MIDDLETON      CLEAR     47  28  47 E7        30.07R
WATERTOWN      CLEAR     40  30  66 NE5       30.07R
MONROE         CLEAR     45  30  57 E8        30.05R
JANESVILLE     CLEAR     39  28  65 E5        30.07R
$$

WIZ051-052-058>065-066-070>072-270500-
SOUTHEAST WISCONSIN

CITY           SKY/WX    TMP DP  RH WIND       PRES   REMARKS
MILWAUKEE      CLEAR     42  29  59 N12       30.07R
WAUKESHA       CLEAR     37  28  70 NE3       30.08R
MILWAUKEE/TIMM CLEAR     41  28  60 N6        30.08R
RACINE         CLEAR     41  31  67 N12       30.07R
BURLINGTON     CLEAR     37  27  65 N5        30.07R WCI  34
KENOSHA        CLEAR     40  30  67 N8        30.06R WCI  34
FOND DU LAC    CLEAR     41  29  62 E6        30.09R
SHEBOYGAN      CLEAR     39  31  72 N7        30.07S WCI  34
WEST BEND      CLEAR     39  28  65 N5        30.07S
JUNEAU         CLEAR     42  30  62 NE13      30.09R
$$

LSZ147-162-270500-
LAKE SUPERIOR

STATION/POSITION TIME  TEMP    WIND        PRES    WAVE
                       AIR SEA DIR/SP/G            HT/PER
                 (UTC) (F)     (DEG/KT/KT) (MB)    (FT/S)
W MID LAKE BUOY  0350   36 35  300/  6/  8 1023.4R   1
DEVILS ISLAND    0400   37      40/  4/  4 1023.1R
PORT WING        0300   35      CALM  /  1 1022.0
SAXON HARBOR     0300   33        CALM     1021.7R
$$

LMZ867-665-643>646-270500-
LAKE MICHIGAN

STATION/POSITION TIME  TEMP    WIND        PRES    WAVE
                       AIR SEA DIR/SP/G            HT/PER
                 (UTC) (F)     (DEG/KT/KT) (MB)    (FT/S)
CHAMBERS ISLAND  0300   41     350/  5/  6 1019.0S
NORTHPORT PIER   0300   41     320/  6/  8 1018.3F
SISTER BAY       0317   44     360/ 14/ 17   N/A
KEWAUNEE LAKESHO 0300   43     360/  2/  7 1017.6R
SHEBOYGAN LAKESH 0400   41     360/ 12/ 13 1019.1R
PORT WASHINGTON  0340   44      10/  8/ 13 1018.6S
MILWAUKEE LAKESH 0300   44      10/ 12/ 15   N/A
KENOSHA   LAKESH 0400   44     360/ 17/ 21 1017.6R
$$

TC  - TEMPERATURE IN CELSIUS
VSB - VISIBILITY IN STATUTE MILES
WCI - WIND CHILL INDEX
HX  - HEAT INDEX



USA.gov is the U.S. government's official web portal to all federal, state and local government web resources and services.